Home   Weather   Ansbach   Past weeks
Flag for Germany

Past Weather in Ansbach, Bavaria, Germany — Yesterday and Last 2 Weeks

Now
50 °F

Sunny.


Feels Like: 49 °F
Forecast: 50 / 32 °F
Wind: 3 mph from Southeast

Location: Ansbach / Katterbach

Current Time: Apr 2, 2020 at 12:43:44 pm

Latest Report: Apr 2, 2020 at 11:56 am


Visibility: N/A

Pressure: 29.98 "Hg

Humidity: 32%

Dew Point: 21 °F

Location of AnsbachLocation

Past Weather in Ansbach — Graph

°F

Ansbach Temperature Yesterday

Maximum temperature yesterday: 47 °F (at 3:56 pm)
Minimum temperature yesterday: 23 °F (at 6:56 am)
Average temperature yesterday: 36 °F

High & Low Weather Summary for the Past Weeks

 TemperatureHumidityPressure
High61 °F (Mar 19, 3:56 pm)100% (Mar 18, 10:56 pm)30.66 "Hg (Mar 18, 10:56 pm)
Low23 °F (Mar 24, 5:56 am)22% (Mar 24, 3:56 pm)30.00 "Hg (Apr 2, 9:56 am)
Average39 °F64%30.29 "Hg
* Reported Mar 18 9:56 am — Apr 2 10:56 am, Ansbach. Weather by CustomWeather, © 2020

Note: Actual official high and low records may vary slightly from our data, if they occured in-between our weather recording intervals... More about our weather records

Ansbach Weather History for the Previous 24 Hours

Scroll right to see more
 ConditionsComfort  
Time TempWeatherWind HumidityBarometerVisibility
10:56 am
Thu, Apr 2
46 °FSunny.3 mph39%30.00 "HgN/A
9:56 am41 °FSunny.5 mph50%30.00 "HgN/A
8:56 am36 °FSunny.No wind60%30.01 "HgN/A
7:56 am28 °FSunny.No wind69%30.03 "HgN/A
6:56 am27 °FSunny.No wind71%30.03 "HgN/A
5:56 am26 °FClear.3 mph76%30.03 "HgN/A
4:56 am27 °FClear.3 mph74%30.03 "HgN/A
3:56 am29 °FClear.3 mph68%30.03 "HgN/A
2:56 am28 °FClear.3 mph69%30.05 "HgN/A
1:56 am32 °FClear.No wind55%30.06 "HgN/A
12:56 am32 °FClear.No wind57%30.08 "HgN/A
11:56 pm
Wed, Apr 1
34 °FClear.No wind50%30.08 "HgN/A
10:56 pm36 °FClear.No wind42%30.09 "HgN/A
9:56 pm40 °FClear.5 mph36%30.10 "HgN/A
8:56 pm43 °FClear.6 mph34%30.10 "HgN/A
7:56 pm45 °FClear.No wind29%30.10 "HgN/A
6:56 pm46 °FSunny.No wind29%30.10 "HgN/A
5:56 pm47 °FSunny.No wind28%30.11 "HgN/A
4:56 pm47 °FSunny.No wind27%30.12 "HgN/A
3:56 pm47 °FSunny.3 mph28%30.15 "HgN/A
2:56 pm45 °FSunny.No wind25%30.17 "HgN/A
1:56 pm43 °FSunny.No wind32%30.19 "HgN/A
12:56 pm42 °FSunny.6 mph40%30.22 "HgN/A
Weather by CustomWeather, © 2020

See weather overview

Advertising